Tianlu-1

operational
NORAD ID: 62726 Int'l Des: NNA 2025-012 Owner: JHQJ/YINHE Country: CN
LEOCIRCULARRETROGRADESSO

关于 Tianlu-1

正在加载描述...

实时位置

正在加载3D地球...

即将过境

高度历史

Altitude vs Time

uPlot chart will show altitude changes over time

两行轨道根数

1 62726U 25012B 25340.92883267 .00008883 00000-0 42795-3 0 9999
2 62726 97.4466 51.7853 0008380 221.1477 138.9126 15.18939011 49048
Epoch: Dec 6, 2025 • Age: 20 hours

当前状态

高度 527.9 km
速度 7.60 km/s
星下点 -62.97°S, 133.94°W
发射日期 Jan 17, 2025
运行时间 0.8 years
类型 other

技术详情

分类 Payload
质量 100.00 kg
干质量 100.00 kg
总质量 100.00 kg
长度 0.70 m
直径 1.00 m
跨度 2.00 m
形状 Box + 2 Pan
制造商 YINHE
平台类型 Tianlu
阶段状态 In Orbit
所有者/国家 JHQJ/YINHE/CN

大型星座

Loading constellations...